Danbury, CT

4:56 AM EST on November 24, 2017 (GMT -0500)
Danbury Municipal

Weather History for KDXR - October, 2011

Change the Weather History Date:

Thursday, October 27, 2011

  Actual Average Record
Temperature  
Mean Temperature 45 °F -  
Max Temperature 55 °F 58 °F 83 °F (1963)
Min Temperature 35 °F 38 °F 23 °F (2006)
Degree Days  
Heating Degree Days 20    
Moisture  
Dew Point 41 °F    
Average Humidity 93    
Maximum Humidity 100    
Minimum Humidity 75    
Precipitation  
Precipitation 0.64 in - - ()
Sea Level Pressure  
Sea Level Pressure 29.72 in    
Wind  
Wind Speed 6 mph (NNE)    
Max Wind Speed 12 mph    
Max Gust Speed 24 mph    
Visibility 6 miles    
Events Rain    
Averages and records for this station are not official NWS values.
T = Trace of Precipitation, MM = Missing Value Source: NWS Daily Summary

Daily Weather History Graph

Daily Weather History Graph

Search for Another Location

Airport or City:

Trip Planner

Search our weather history database for the weather conditions in past years. The results will help you decide how hot, cold, wet, or windy it might be!

Date:

Astronomy

Oct. 27, 2011 Rise Set
Actual Time 7:19 AM EDT 5:55 PM EDT
Civil Twilight 6:50 AM EDT 6:24 PM EDT
Nautical Twilight 6:18 AM EDT 6:56 PM EDT
Astronomical Twilight 5:46 AM EDT 7:28 PM EDT
Moon 8:20 AM EDT (10/27) 6:21 PM EDT (10/27)
Length of Visible Light 11h 33m
Length of Day
10h 36m
New Moon, 1% of the Moon is Illuminated
Oct 27
New Moon
Nov 2
First Quarter
Nov 10
Full
Nov 18
Last Quarter
Nov 25
New

Hourly Weather History & Observations

Time (EDT) Temp. Windchill Dew Point Humidity Pressure Visibility Wind Dir Wind Speed Gust Speed Precip Events Conditions
12:53 AM 55.9 °F - 48.0 °F 75% 29.73 in 10.0 mi South 3.5 mph - N/A   Overcast
1:53 AM 55.0 °F - 50.0 °F 83% 29.71 in 10.0 mi Calm Calm - N/A   Overcast
4:53 AM 52.0 °F - 51.1 °F 97% 29.68 in 8.0 mi North 3.5 mph - 0.01 in Rain Light Rain
5:45 AM 51.8 °F - 50.0 °F 94% 29.69 in 8.0 mi NE 3.5 mph - 0.01 in Rain Light Rain
5:53 AM 51.1 °F - 50.0 °F 96% 29.68 in 9.0 mi NE 4.6 mph - 0.01 in Rain Light Rain
6:10 AM 51.8 °F - 50.0 °F 94% 29.69 in 8.0 mi Calm Calm - 0.00 in Rain Light Rain
6:53 AM 50.0 °F - 48.9 °F 96% 29.70 in 4.0 mi NNE 9.2 mph - 0.02 in Rain Light Rain
7:53 AM 48.0 °F - 46.9 °F 96% 29.71 in 2.0 mi NE 5.8 mph - 0.03 in Rain Light Rain
8:53 AM 46.9 °F - 46.0 °F 97% 29.74 in 7.0 mi NNE 5.8 mph - 0.02 in Rain Light Rain
9:07 AM 46.4 °F 41.9 °F 46.4 °F 100% 29.71 in 2.0 mi NE 9.2 mph - 0.02 in Rain Rain
9:53 AM 46.0 °F 42.5 °F 45.0 °F 96% 29.72 in 9.0 mi NE 6.9 mph - 0.03 in Rain Light Rain
10:53 AM 45.0 °F 40.6 °F 43.0 °F 93% 29.71 in 8.0 mi NE 8.1 mph - 0.01 in Rain Light Rain
11:00 AM 44.6 °F 40.7 °F 42.8 °F 93% 29.71 in 6.0 mi NE 6.9 mph - 0.00 in Rain Light Rain
11:14 AM 44.6 °F 40.7 °F 44.6 °F 100% 29.70 in 2.5 mi NE 6.9 mph - 0.01 in Rain Rain
11:53 AM 44.1 °F 39.5 °F 44.1 °F 100% 29.69 in 4.0 mi NNE 8.1 mph - 0.02 in Rain Light Rain
12:53 PM 44.1 °F 41.5 °F 43.0 °F 96% 29.68 in 4.0 mi NE 4.6 mph - 0.04 in Rain Light Rain
1:53 PM 44.1 °F 39.0 °F 43.0 °F 96% 29.69 in 2.0 mi North 9.2 mph - 0.09 in Rain Rain
2:53 PM 43.0 °F 37.7 °F 42.1 °F 97% 29.67 in 2.0 mi NNE 9.2 mph - 0.08 in Rain Light Rain
3:00 PM 42.8 °F 38.0 °F 42.8 °F 100% 29.66 in 6.0 mi NE 8.1 mph - 0.00 in Rain Light Rain
3:53 PM 43.0 °F 38.8 °F 41.0 °F 93% 29.65 in 8.0 mi NNE 6.9 mph - 0.02 in Rain Light Rain
4:17 PM 42.8 °F 39.3 °F 41.0 °F 93% 29.65 in 1.8 mi NNE 5.8 mph - 0.01 in Rain Light Rain
4:53 PM 42.1 °F 38.4 °F 41.0 °F 96% 29.64 in 1.5 mi NE 5.8 mph - 0.03 in Rain Light Rain
5:08 PM 42.8 °F 38.0 °F 41.0 °F 93% 29.63 in 2.0 mi NNE 8.1 mph - 0.00 in Rain Light Rain
5:15 PM 42.8 °F 38.6 °F 41.0 °F 93% 29.64 in 2.5 mi NNE 6.9 mph - 0.01 in Rain Light Rain
5:21 PM 42.8 °F 37.5 °F 41.0 °F 93% 29.65 in 3.0 mi NNE 9.2 mph - 0.01 in Rain Light Rain
5:28 PM 42.8 °F 37.0 °F 39.2 °F 87% 29.65 in 1.8 mi NE 10.4 mph 18.4 mph 0.02 in Rain Rain
5:43 PM 42.8 °F 36.6 °F 41.0 °F 93% 29.68 in 3.0 mi North 11.5 mph 24.2 mph 0.05 in Rain Rain
5:50 PM 42.8 °F 38.0 °F 39.2 °F 87% 29.69 in 2.5 mi North 8.1 mph 24.2 mph 0.05 in Rain Rain
5:51 PM 42.1 °F 37.7 °F 39.9 °F 92% 29.69 in 2.5 mi North 6.9 mph 24.2 mph 0.06 in Rain Rain
6:20 PM 39.2 °F 32.0 °F 37.4 °F 93% 29.72 in 3.0 mi North 11.5 mph 23.0 mph 0.06 in Rain Rain
6:29 PM 39.2 °F 32.5 °F 35.6 °F 87% 29.73 in 5.0 mi North 10.4 mph 18.4 mph 0.07 in Rain Light Rain
6:46 PM 37.4 °F 32.1 °F 35.6 °F 93% 29.75 in 5.0 mi North 6.9 mph - 0.09 in Rain Rain
6:53 PM 37.0 °F 31.6 °F 35.1 °F 93% 29.75 in 5.0 mi North 6.9 mph - 0.10 in Rain Rain
7:21 PM 35.6 °F 29.2 °F 35.6 °F 100% 29.77 in 5.0 mi North 8.1 mph - 0.05 in Rain Rain
7:53 PM 37.0 °F 32.4 °F 35.1 °F 93% 29.79 in 10.0 mi NNE 5.8 mph - 0.06 in Rain Light Rain
8:28 PM 37.4 °F 30.8 °F 35.6 °F 93% 29.80 in 9.0 mi North 9.2 mph - 0.01 in Rain Light Rain
8:53 PM 37.0 °F 30.4 °F 35.1 °F 93% 29.83 in 10.0 mi North 9.2 mph - 0.01 in Rain Light Rain
9:16 PM 35.6 °F 29.9 °F 33.8 °F 93% 29.85 in 10.0 mi North 6.9 mph 16.1 mph 0.00 in Rain Light Rain
9:53 PM 36.0 °F 30.3 °F 34.0 °F 93% 29.89 in 10.0 mi North 6.9 mph - 0.00 in   Overcast
10:53 PM 36.0 °F 29.0 °F 33.1 °F 89% 29.92 in 10.0 mi North 9.2 mph - 0.00 in   Overcast
11:53 PM 36.0 °F 28.0 °F 32.0 °F 86% 29.95 in 10.0 mi NNW 11.5 mph 19.6 mph N/A   Mostly Cloudy